THORAD AGENA D DEB, 18418

Orbit data source: Space-Track

THORAD AGENA D DEB, 18418 is space debris in SSO originally from a launch on Wed, 08 Apr 1970 UTC launched from the Air Force Western Test Range (AFWTR). Debris objects in space refer to the collection of defunct objects orbiting the Earth. Examples of debris include non-operational satellites, rocket bodies, and fragments generated from explosions, collisions, or faulty payload assembly.

Loading next visibility...
Identifier
18418, 1970-025PL
Orbit
SSO
Country
Flag of USUS
Related business
Manufacturer
Unknown
Mission
Spacecraft
Bus & Motor
Unknown
Mass
Unknown
Launch date (UTC)
1970-04-08 (56 years ago)
Launch vehicle
Unknown
Launch site
Air Force Western Test Range (AFWTR)
Object type
Payload
Rocket body
Debris
Shape & HBR
Unknown shape, 0.1 m
Radar Cross Section
Small (<0.1 m²)

Expand to show TLE details & history
Last TLE update: 1 day ago

TLE from 1 day ago
0 THORAD AGENA D DEB
1 18418U 70025PL  25291.91263171  .00002544  00000-0  25120-2 0  9992
2 18418 100.1792  81.6050 0002663 206.1729 307.5142 13.79672784757362
Epoch: 2025-10-18T21:54Z
TLE epoch observation values (Epoch: 2025-10-18T21:54:11.379Z)
Latitude
25.92551°
Longitude
-89.59792°
Altitude
966.907 km
Speed
7.371 km/s
True Right ascension
17h 46m 20s
True Declination
25° 47' 40"
Sunlit
Object was in daylight at epoch
Visualization orbit readout
Latitude
Unknown
Longitude
Unknown
Altitude
Unknown
Speed
Unknown
Apparent Right ascension
Unknown
Apparent Declination
Unknown
Sunlit
N/A
Visualization observer readout
Local Sidereal Time
18:28:13
Azimuth
Unknown
Elevation
Unknown
Doppler factor
Unknown
Orbital elements
Apogee altitude
964.29 km
Perigee altitude
960.38 km
Semi-major axis
7,340.472 km
Eccentricity
0.00027
Inclination
100.1792°
RAAN
81.605°
Arg. of periapsis
206.1729°
True anomaly
307.48999°
Mean anomaly
307.5142°
Eccentric anomaly
307.5021°
Mean motion
3.4511 °/min
Orbital period
104.31 mins
BSTAR
0.002512
Loading maneuver chart data...
Computing Atmospheric mass density...

Documentation

Showing up to 5 results
|